DELTA 1 DEB, 10708

Orbit data source: Space-Track

DELTA 1 DEB, 10708 is space debris in SSO originally from a launch on Thu, 29 Jul 1976 UTC launched from the Air Force Western Test Range (AFWTR). Debris objects in space refer to the collection of defunct objects orbiting the Earth. Examples of debris include non-operational satellites, rocket bodies, and fragments generated from explosions, collisions, or faulty payload assembly.

Loading next visibility...
Identifier
10708, 1976-077AD
Orbit
SSO
Country
Flag of USUS
Related business
Manufacturer
Unknown
Mission
Spacecraft
Bus & Motor
Unknown
Mass
Unknown
Launch date (UTC)
1976-07-29 (49 years ago)
Launch vehicle
Unknown
Launch site
Air Force Western Test Range (AFWTR)
Object type
Payload
Rocket body
Debris
Shape & HBR
Unknown
Radar Cross Section
Small (<0.1 m²)

Expand to show TLE details & history
Last TLE update: 13 hours ago

TLE from 13 hours ago
0 DELTA 1 DEB
1 10708U 76077AD  25260.98186919  .00000363  00000-0  21279-2 0  9994
2 10708 101.2144 272.4736 0162737 186.7495 231.3039 12.63192294253479
Epoch: 2025-09-17T23:33Z
TLE epoch observation values (Epoch: 2025-09-17T23:33:53.498Z)
Latitude
55.08453°
Longitude
-94.56827°
Altitude
1,499.224 km
Speed
7.083 km/s
True Right ascension
17h 04m 13s
True Declination
54° 56' 17"
Sunlit
Object was in daylight at epoch
Visualization orbit readout
Latitude
Unknown
Longitude
Unknown
Altitude
Unknown
Speed
Unknown
Apparent Right ascension
Unknown
Apparent Declination
Unknown
Sunlit
N/A
Visualization observer readout
Local Sidereal Time
05:26:22
Azimuth
Unknown
Elevation
Unknown
Doppler factor
Unknown
Orbital elements
Apogee altitude
1,533.991 km
Perigee altitude
1,280.596 km
Semi-major axis
7,785.43 km
Eccentricity
0.01627
Inclination
101.2144°
RAAN
272.4736°
Arg. of periapsis
186.7495°
True anomaly
229.86689°
Mean anomaly
231.3039°
Eccentric anomaly
230.58356°
Mean motion
3.15951 °/min
Orbital period
113.94 mins
BSTAR
0.0021279
Loading maneuver chart data...
Computing Atmospheric mass density...
Loading historical data...
Loading historical data...
Loading historical data...
Loading historical data...
Loading historical data...
Loading historical data...
Loading historical data...

Documentation

Showing up to 5 results
|